| time (UTC) | temp C | wind direction | speed KPH | gust KPH | rain 1hr cm | rain 24hr cm | rain mn cm | humidity % | barometer mb |
| 20260504081535 | 5 | 360 | 1.6 | 3.2 | 0.00 | 0.00 | 0.00 | 50 | 1014.1 |
| 20260504050010 | 7 | 360 | 3.2 | 6.4 | 0.00 | 0.00 | 0.00 | 46 | 1013.7 |
| 20260504044509 | 7 | 360 | 1.6 | 4.8 | 0.00 | 0.00 | 0.00 | 45 | 1013.6 |
| 20260504043012 | 7 | 360 | 3.2 | 4.8 | 0.00 | 0.00 | 0.00 | 45 | 1013.6 |
| 20260504041506 | 7 | 360 | 1.6 | 6.4 | 0.00 | 0.00 | 0.00 | 46 | 1013.6 |
| 20260504040008 | 6 | 360 | 0.0 | 3.2 | 0.00 | 0.00 | 0.00 | 46 | 1013.4 |
| 20260504034501 | 6 | 360 | 0.0 | 3.2 | 0.00 | 0.00 | 0.00 | 47 | 1013.4 |
| 20260504033002 | 7 | 360 | 0.0 | 0.0 | 0.00 | 0.00 | 0.00 | 45 | 1013.3 |
| 20260504031502 | 7 | 360 | 0.0 | 3.2 | 0.00 | 0.00 | 0.00 | 43 | 1013.3 |
| 20260504030001 | 7 | 360 | 1.6 | 4.8 | 0.00 | 0.00 | 0.00 | 42 | 1013.3 |
| 20260504024601 | 7 | 360 | 0.0 | 1.6 | 0.00 | 0.00 | 0.00 | 42 | 1013.3 |
| 20260504023100 | 7 | 360 | 3.2 | 4.8 | 0.00 | 0.00 | 0.00 | 43 | 1013.3 |
| 20260504021602 | 7 | 360 | 0.0 | 1.6 | 0.00 | 0.00 | 0.00 | 46 | 1013.3 |
| 20260504020114 | 7 | 360 | 0.0 | 1.6 | 0.00 | 0.00 | 0.00 | 47 | 1013.4 |
| 20260504014605 | 7 | 360 | 0.0 | 0.0 | 0.00 | 0.00 | 0.00 | 45 | 1013.1 |
| 20260504013106 | 7 | 360 | 0.0 | 0.0 | 0.00 | 0.00 | 0.00 | 43 | 1013.0 |
| 20260504011559 | 8 | 238 | 0.0 | 3.2 | 0.00 | 0.00 | 0.00 | 42 | 1012.9 |
| 20260504010056 | 8 | 238 | 0.0 | 4.8 | 0.00 | 0.00 | 0.00 | 39 | 1012.8 |
| 20260504004559 | 8 | 360 | 0.0 | 3.2 | 0.00 | 0.00 | 0.00 | 42 | 1012.7 |
| 20260504003057 | 9 | 360 | 0.0 | 3.2 | 0.00 | 0.00 | 0.00 | 41 | 1012.6 |
| 20260504001559 | 10 | 360 | 0.0 | 3.2 | 0.00 | 0.00 | 0.00 | 37 | 1012.4 |
| 20260504000057 | 11 | 238 | 0.0 | 3.2 | 0.00 | 0.00 | 0.00 | 35 | 1012.4 |
| 20260503234553 | 11 | 360 | 1.6 | 4.8 | 0.00 | 0.00 | 0.00 | 32 | 1012.3 |
| 20260503233054 | 11 | 360 | 1.6 | 12.9 | 0.00 | 0.00 | 0.00 | 31 | 1012.2 |
| 20260503231552 | 12 | 360 | 3.2 | 9.7 | 0.00 | 0.00 | 0.00 | 30 | 1012.2 |
| 20260503224555 | 12 | 360 | 8.0 | 14.5 | 0.00 | 0.00 | 0.00 | 28 | 1012.2 |
| 20260503223048 | 12 | 360 | 4.8 | 8.0 | 0.00 | 0.00 | 0.00 | 28 | 1012.0 |
| 20260503221548 | 13 | 360 | 1.6 | 11.3 | 0.00 | 0.00 | 0.00 | 28 | 1012.0 |
| 20260503220047 | 12 | 207 | 1.6 | 8.0 | 0.00 | 0.00 | 0.00 | 28 | 1012.2 |
| 20260503214548 | 13 | 38 | 3.2 | 16.1 | 0.00 | 0.00 | 0.00 | 26 | 1012.2 |
| 20260503213046 | 13 | 360 | 11.3 | 25.7 | 0.00 | 0.00 | 0.00 | 26 | 1012.0 |
| 20260503211605 | 13 | 360 | 9.7 | 22.5 | 0.00 | 0.00 | 0.00 | 25 | 1012.1 |
| 20260503210046 | 12 | 360 | 3.2 | 20.9 | 0.00 | 0.00 | 0.00 | 24 | 1012.1 |
| 20260503204545 | 14 | 273 | 8.0 | 19.3 | 0.00 | 0.00 | 0.00 | 22 | 1011.9 |
| 20260503203047 | 13 | 360 | 8.0 | 22.5 | 0.00 | 0.00 | 0.00 | 25 | 1012.0 |
| 20260503201542 | 13 | 360 | 12.9 | 29.0 | 0.00 | 0.00 | 0.00 | 22 | 1012.0 |
| 20260503200053 | 13 | 293 | 6.4 | 29.0 | 0.00 | 0.00 | 0.00 | 25 | 1012.0 |
| 20260503194538 | 12 | 360 | 3.2 | 17.7 | 0.00 | 0.00 | 0.00 | 28 | 1012.2 |
| 20260503193042 | 13 | 230 | 8.0 | 16.1 | 0.00 | 0.00 | 0.00 | 23 | 1012.5 |
| 20260503191542 | 12 | 221 | 6.4 | 16.1 | 0.00 | 0.00 | 0.00 | 26 | 1012.6 |
| 20260503190032 | 12 | 70 | 4.8 | 17.7 | 0.00 | 0.00 | 0.00 | 24 | 1013.0 |
| 20260503184539 | 12 | 250 | 3.2 | 19.3 | 0.00 | 0.00 | 0.00 | 25 | 1013.2 |
| 20260503183028 | 11 | 240 | 6.4 | 19.3 | 0.00 | 0.00 | 0.00 | 29 | 1013.4 |
| 20260503181527 | 11 | 268 | 6.4 | 24.1 | 0.00 | 0.00 | 0.00 | 29 | 1013.7 |
| 20260503180041 | 11 | 286 | 6.4 | 19.3 | 0.00 | 0.00 | 0.00 | 27 | 1013.6 |
| 20260503174526 | 11 | 221 | 9.7 | 20.9 | 0.00 | 0.00 | 0.00 | 27 | 1013.8 |
| 20260503173028 | 11 | 202 | 4.8 | 16.1 | 0.00 | 0.00 | 0.00 | 29 | 1014.0 |
| 20260503171521 | 10 | 71 | 8.0 | 24.1 | 0.00 | 0.00 | 0.00 | 27 | 1014.0 |